EN

Hourly Weather Abong Mbang

Today, 29 November, Sunday

Time Temperature Precipitation Wind Pressure Humidity
00:00 +23°C° 0 mm 1 mps 700 mmHg 51%
01:00 +22°C° 0 mm 1 mps 700 mmHg 57%
02:00 +22°C° 0 mm 1 mps 700 mmHg 60%
03:00 +19°C° 0 mm 0 mps 700 mmHg 63%
04:00 +19°C° 0 mm 0 mps 700 mmHg 65%
05:00 +19°C° 0 mm 0 mps 700 mmHg 70%
06:00 +19°C° 0 mm 0 mps 701 mmHg 74%
07:00 +20°C° 0 mm 0 mps 702 mmHg 73%
08:00 +24°C° 0 mm 0 mps 702 mmHg 61%
09:00 +28°C° 0 mm 0 mps 702 mmHg 48%
10:00 +32°C° 0 mm 0 mps 703 mmHg 35%
11:00 +34°C° 0 mm 1 mps 702 mmHg 31%
12:00 +35°C° 0 mm 1 mps 701 mmHg 26%
13:00 +37°C° 0 mm 2 mps 700 mmHg 21%
14:00 +36°C° 0 mm 2 mps 700 mmHg 22%
15:00 +36°C° 0 mm 2 mps 699 mmHg 22%
16:00 +36°C° 0 mm 2 mps 698 mmHg 22%
17:00 +32°C° 0 mm 1 mps 698 mmHg 28%
18:00 +29°C° 0 mm 1 mps 698 mmHg 33%
19:00 +26°C° 0 mm 1 mps 698 mmHg 39%
20:00 +26°C° 0 mm 1 mps 699 mmHg 41%
21:00 +25°C° 0 mm 1 mps 699 mmHg 42%
22:00 +24°C° 0 mm 1 mps 700 mmHg 44%
23:00 +22°C° 0 mm 0 mps 700 mmHg 46%

Tomorrow, 30 November, Monday

Time Temperature Precipitation Wind Pressure Humidity
00:00 +22°C° 0 mm 0 mps 700 mmHg 49%
01:00 +22°C° 0 mm 0 mps 700 mmHg 51%
02:00 +21°C° 0 mm 0 mps 700 mmHg 53%
03:00 +21°C° 0 mm 0 mps 700 mmHg 55%
04:00 +20°C° 0 mm 0 mps 700 mmHg 57%
05:00 +20°C° 0 mm 0 mps 700 mmHg 59%
06:00 +20°C° 0 mm 0 mps 701 mmHg 60%
07:00 +21°C° 0 mm 0 mps 701 mmHg 61%
08:00 +24°C° 0 mm 0 mps 702 mmHg 52%
09:00 +28°C° 0 mm 0 mps 702 mmHg 43%
10:00 +32°C° 0 mm 0 mps 703 mmHg 34%
11:00 +35°C° 0 mm 1 mps 702 mmHg 30%
12:00 +36°C° 0 mm 1 mps 701 mmHg 26%
13:00 +37°C° 0 mm 1 mps 700 mmHg 23%
14:00 +36°C° 0 mm 1 mps 700 mmHg 24%
15:00 +36°C° 0 mm 1 mps 699 mmHg 25%
16:00 +35°C° 0 mm 1 mps 698 mmHg 26%
17:00 +33°C° 0 mm 1 mps 699 mmHg 31%
18:00 +30°C° 0 mm 1 mps 699 mmHg 36%
19:00 +27°C° 0 mm 1 mps 699 mmHg 41%
20:00 +26°C° 0 mm 1 mps 699 mmHg 44%
21:00 +26°C° 0 mm 1 mps 700 mmHg 47%
22:00 +25°C° 0 mm 1 mps 700 mmHg 50%
23:00 +24°C° 0 mm 1 mps 700 mmHg 57%

Day after tomorrow, 1 December, Tuesday

Time Temperature Precipitation Wind Pressure Humidity
00:00 +24°C° 0 mm 1 mps 700 mmHg 64%
01:00 +23°C° 0 mm 1 mps 700 mmHg 70%
02:00 +23°C° 0 mm 1 mps 700 mmHg 74%
03:00 +22°C° 0 mm 1 mps 700 mmHg 77%
04:00 +22°C° 0 mm 1 mps 700 mmHg 81%
05:00 +20°C° 0 mm 0 mps 700 mmHg 81%
06:00 +20°C° 0 mm 0 mps 701 mmHg 82%
07:00 +20°C° 0 mm 0 mps 701 mmHg 82%
08:00 +24°C° 0 mm 0 mps 701 mmHg 68%
09:00 +28°C° 0 mm 0 mps 702 mmHg 54%
10:00 +33°C° 0 mm 1 mps 702 mmHg 40%
11:00 +34°C° 0 mm 1 mps 702 mmHg 34%
12:00 +36°C° 0 mm 2 mps 701 mmHg 29%
13:00 +37°C° 0 mm 2 mps 700 mmHg 23%
14:00 +37°C° 0 mm 2 mps 699 mmHg 23%
15:00 +37°C° 0 mm 2 mps 699 mmHg 23%
16:00 +37°C° 0 mm 2 mps 698 mmHg 23%
17:00 +34°C° 0 mm 2 mps 698 mmHg 29%
18:00 +30°C° 0 mm 1 mps 698 mmHg 35%
19:00 +27°C° 0 mm 1 mps 699 mmHg 41%
20:00 +26°C° 0 mm 1 mps 699 mmHg 49%
21:00 +25°C° 0 mm 1 mps 700 mmHg 57%
22:00 +24°C° 0 mm 1 mps 700 mmHg 66%
23:00 +24°C° 0 mm 1 mps 700 mmHg 70%

2 December, Wednesday

Time Temperature Precipitation Wind Pressure Humidity
00:00 +23°C° 0 mm 1 mps 700 mmHg 74%
01:00 +23°C° 0 mm 1 mps 700 mmHg 79%
02:00 +22°C° 0.2 mm 1 mps 700 mmHg 85%
03:00 +22°C° 0.2 mm 1 mps 700 mmHg 91%
04:00 +21°C° 0.2 mm 1 mps 700 mmHg 97%
05:00 +22°C° 0 mm 1 mps 700 mmHg 93%
06:00 +22°C° 0 mm 1 mps 700 mmHg 90%
07:00 +23°C° 0 mm 1 mps 701 mmHg 86%
08:00 +26°C° 0 mm 1 mps 701 mmHg 70%
09:00 +29°C° 0 mm 1 mps 702 mmHg 54%
10:00 +33°C° 0 mm 1 mps 702 mmHg 38%
11:00 +34°C° 0 mm 1 mps 701 mmHg 32%
12:00 +36°C° 0 mm 2 mps 700 mmHg 26%
13:00 +37°C° 0 mm 2 mps 699 mmHg 20%
14:00 +37°C° 0 mm 2 mps 699 mmHg 20%
15:00 +37°C° 0 mm 2 mps 698 mmHg 20%
16:00 +37°C° 0 mm 2 mps 697 mmHg 20%
17:00 +32°C° 0 mm 1 mps 697 mmHg 25%
18:00 +29°C° 0 mm 1 mps 697 mmHg 30%
19:00 +24°C° 0 mm 0 mps 697 mmHg 35%
20:00 +23°C° 0 mm 0 mps 698 mmHg 36%
21:00 +22°C° 0 mm 0 mps 699 mmHg 36%
22:00 +21°C° 0 mm 0 mps 700 mmHg 37%
23:00 +21°C° 0 mm 0 mps 700 mmHg 43%

3 December, Thursday

Time Temperature Precipitation Wind Pressure Humidity
00:00 +20°C° 0 mm 0 mps 700 mmHg 50%
01:00 +21°C° 0 mm 1 mps 700 mmHg 56%
02:00 +20°C° 0 mm 1 mps 700 mmHg 67%
03:00 +20°C° 0 mm 1 mps 700 mmHg 78%
04:00 +19°C° 0 mm 1 mps 700 mmHg 89%
05:00 +20°C° 0 mm 1 mps 700 mmHg 88%
06:00 +21°C° 0 mm 1 mps 701 mmHg 87%
07:00 +22°C° 0 mm 1 mps 701 mmHg 86%
08:00 +26°C° 0 mm 1 mps 702 mmHg 70%
09:00 +29°C° 0 mm 1 mps 702 mmHg 54%
10:00 +32°C° 0 mm 1 mps 703 mmHg 38%
11:00 +33°C° 0 mm 1 mps 702 mmHg 32%
12:00 +35°C° 0 mm 1 mps 701 mmHg 25%
13:00 +37°C° 0 mm 2 mps 700 mmHg 19%
14:00 +37°C° 0 mm 2 mps 700 mmHg 18%
15:00 +36°C° 0 mm 1 mps 699 mmHg 18%
16:00 +35°C° 0 mm 1 mps 698 mmHg 18%
17:00 +32°C° 0 mm 1 mps 698 mmHg 23%
18:00 +29°C° 0 mm 1 mps 698 mmHg 27%
19:00 +24°C° 0 mm 0 mps 698 mmHg 32%
20:00 +25°C° 0 mm 1 mps 699 mmHg 32%
21:00 +24°C° 0 mm 1 mps 699 mmHg 33%
22:00 +24°C° 0 mm 1 mps 700 mmHg 33%
23:00 +23°C° 0 mm 1 mps 700 mmHg 44%

4 December, Friday

Time Temperature Precipitation Wind Pressure Humidity
00:00 +22°C° 0 mm 1 mps 700 mmHg 55%
01:00 +21°C° 0 mm 1 mps 700 mmHg 66%
02:00 +21°C° 0 mm 1 mps 700 mmHg 74%
03:00 +20°C° 0 mm 1 mps 700 mmHg 82%
04:00 +20°C° 0 mm 1 mps 700 mmHg 90%
05:00 +21°C° 0 mm 1 mps 700 mmHg 89%
06:00 +22°C° 0 mm 1 mps 701 mmHg 89%
07:00 +22°C° 0 mm 1 mps 701 mmHg 88%
08:00 +25°C° 0 mm 1 mps 702 mmHg 74%
09:00 +28°C° 0 mm 1 mps 702 mmHg 60%
10:00 +31°C° 0 mm 1 mps 703 mmHg 46%
11:00 +33°C° 0 mm 1 mps 702 mmHg 38%
12:00 +36°C° 0 mm 1 mps 702 mmHg 31%
13:00 +36°C° 0 mm 0 mps 701 mmHg 23%
14:00 +35°C° 0 mm 0 mps 700 mmHg 24%
15:00 +36°C° 0 mm 1 mps 700 mmHg 24%
16:00 +35°C° 0 mm 1 mps 699 mmHg 25%
17:00 +32°C° 0 mm 1 mps 699 mmHg 33%
18:00 +27°C° 0 mm 0 mps 699 mmHg 40%
19:00 +24°C° 0 mm 0 mps 699 mmHg 48%
20:00 +23°C° 0 mm 0 mps 699 mmHg 52%
21:00 +23°C° 0 mm 0 mps 700 mmHg 56%
22:00 +24°C° 0 mm 1 mps 700 mmHg 60%
23:00 +23°C° 0 mm 1 mps 700 mmHg 66%
Show more